Flag for Western Sahara Weather past 2 weeks in El Aaiún, Western Sahara

Now
70 °F

Clear.


Feels Like: 70 °F
Forecast: 68 / 84 °F
Wind: 15 mph from Northeast

Location: Laayoune/Hassan Isl

Current Time: Sep 5, 2015 at 12:46:05 AM

Latest Report: Sep 5, 2015 at 12:00 AM


Visibility: 5 mi

Pressure: 30.04 "Hg

Humidity: 78%

Dew point: 63 °F

Location of El AaiúnLocation

Historic Weather in El Aaiún — Graph

°F

El Aaiún temperature yesterday

Maximum temperature yesterday: 84 °F (at 3:00 PM)
Minimum temperature yesterday: 66 °F (at 7:00 AM)
Average temperature yesterday: 74 °F

Past Weeks' High & Low Weather Summary

 TemperatureHumidityPressure
High90 °F (Aug 21, 4:00 PM)88% (Aug 24, 2:00 AM)30.12 "Hg (Aug 24, 2:00 AM)
Low66 °F (Sep 4, 7:00 AM)33% (Aug 21, 4:00 PM)29.89 "Hg (Aug 28, 6:00 PM)
Average76 °F66%30.02 "Hg
* Reported Aug 20 11:00 PM — Sep 4 11:00 PM, El Aaiún, Weather by CustomWeather, © 2015

Note: Actual official high and low records may vary slightly from our data, if they occured in-between our weather recording intervals... More about our weather records

Advertising

El Aaiún weather history for previous 24 hours

 ConditionsComfort  
Time TempWeatherWind HumidityBarometerVisibility
11:00 PM
Fri, Sep 4
72 °FClear.14 mph69%30.04 "Hg5 mi
10:00 PM72 °FClear.15 mph69%30.04 "Hg10 mi
9:00 PM73 °FSunny.20 mph65%30.01 "Hg10 mi
8:00 PM75 °FSunny.20 mph61%30.01 "Hg10 mi
7:00 PM77 °FSunny.22 mph57%30.01 "Hg10 mi
6:00 PM79 °FSunny.23 mph54%29.98 "Hg10 mi
5:00 PM81 °FSunny.22 mph48%29.98 "Hg10 mi
4:00 PM84 °FSunny.20 mph40%29.98 "Hg10 mi
3:00 PM84 °FSunny.22 mph40%30.01 "Hg10 mi
2:00 PM81 °FPassing clouds.18 mph48%30.04 "HgN/A
1:00 PM79 °FPassing clouds.17 mph51%30.04 "HgN/A
12:00 PM77 °FPassing clouds.17 mph54%30.07 "HgN/A
11:00 AM75 °FScattered clouds.16 mph61%30.07 "HgN/A
10:00 AM73 °FScattered clouds.16 mph69%30.07 "HgN/A
9:00 AM70 °FPassing clouds.9 mph78%30.04 "HgN/A
8:00 AM66 °FPassing clouds.6 mph83%30.04 "HgN/A
7:00 AM66 °FPassing clouds.7 mph83%30.04 "HgN/A
6:00 AM68 °FPassing clouds.9 mph78%30.01 "HgN/A
5:00 AM68 °FPassing clouds.8 mph83%30.01 "HgN/A
4:00 AM68 °FPassing clouds.9 mph83%30.04 "HgN/A
3:00 AM68 °FPassing clouds.13 mph83%30.04 "HgN/A
2:00 AM70 °FPassing clouds.13 mph78%30.04 "HgN/A
1:00 AM72 °FPassing clouds.13 mph78%30.07 "HgN/A
12:00 AM72 °FPassing clouds.16 mph73%30.07 "HgN/A
Weather by CustomWeather, © 2015

See weather overviewHow to use our weather pages